Location: Beadle
(51.4667°N, 109.0000°W)
Time: 04:42:10
(UTC+00:00)

Altair - Pass Details

Date: 06 June 2022
Orbit: 1501 x 1682 km, 47.2° (Epoch: 30 June)

Event Time Altitude Azimuth Distance (km) Brightness Sun altitude
Rises 04:48:25 0° 285° (WNW) 4,927 11.0 -9.2°
Reaches altitude 10° 04:54:01 10° 261° (W) 3,945 10.0 -9.7°
Maximum altitude 04:57:59 13° 237° (WSW) 3,701 9.5 -10.0°
Drops below altitude 10° 05:01:57 10° 213° (SSW) 3,933 9.4 -10.4°
Enters shadow 05:07:18 - 189° (S) 4,841 9.6 -10.8°
Sets 05:07:34 0° 189° (S) 4,898 - -10.8°
